Regional Weather Roundup
Issued by NWS

Home | Current Version | Previous Version | Text Only | Print | Product List | Glossary Off
Versions: 1 2 3 4 5 6 7 8 9 10 11 12 13 14 15 16 17 18 19 20 21 22 23 24 25 26 27 28 29 30 31 32 33 34 35 36 37 38 39 40 41 42 43 44 45 46 47 48 49 50

000
ASUS43 KLOT 250521
RWRIL

ILLINOIS REGIONAL WEATHER ROUNDUP
NATIONAL WEATHER SERVICE CHICAGO/ROMEOVILLE IL
1200 AM CDT MON MAY 25 2015

NOTE: "FAIR" INDICATES FEW OR NO CLOUDS BELOW 12,000 FEET WITH NO
SIGNIFICANT WEATHER AND/OR OBSTRUCTIONS TO VISIBILITY.

* THESE STATIONS ARE NOT UNDER NWS QUALITY CONTROL. THEY ALSO MAY NOT
  REPORT WEATHER SUCH AS PRECIPITATION OR FOG.

ILZ001-002-007-009-015-016-024-250600-
NORTHWEST ILLINOIS

CITY           SKY/WX    TMP DP  RH WIND       PRES   REMARKS
MOLINE         CLOUDY    68  65  90 SE8       29.83F
STERLING*      CLOUDY    68  64  88 SW7       29.87S
SAVANNA*       DRIZZLE   68  65  91 S7        29.84F
$$

ILZ003-004-008-010-011-017-018-250600-
NORTH CENTRAL ILLINOIS

CITY           SKY/WX    TMP DP  RH WIND       PRES   REMARKS
ROCKFORD       LGT RAIN  68  64  87 S8        29.89F
FREEPORT*      DRIZZLE   67  65  92 S15G21    29.87F
ROCHELLE*      RAIN      67  65  95 SW5       29.89F
DE KALB*       CLOUDY    68  63  83 S12       29.90F
PERU*          CLOUDY    74  64  70 W12G22    29.89R
$$

ILZ005-006-012>014-019>023-250600-
NORTHEAST ILLINOIS

CITY           SKY/WX    TMP DP  RH WIND       PRES   REMARKS
CHICAGO-OHARE  MOCLDY    68  62  81 S9        29.91S
CHICAGO-MIDWAY MOCLDY    76  63  64 S13       29.92S
AURORA         MOCLDY    73  61  65 S15       29.90F
LANSING*       CLEAR     73  58  59 S14G20    29.94F
JOLIET*        MOCLDY    75  64  67 S10G16    29.91F
WAUKEGAN       MOCLDY    59  58  96 SE3       29.90F
DUPAGE AIRPORT PTCLDY    72  62  71 S16       29.90F
KANKAKEE*      MOCLDY    74  63  66 S20G25    29.94F
WHEELING       PTCLDY    63  61  93 SE6       29.92F FOG
MORRIS*        CLOUDY    73  63  69 S17       29.90S
ROMEOVILLE*    MOCLDY    72  61  67 S17G24    29.91F
NORTHERLY ISL    N/A     73  60  63 S14         N/A
$$

LMZ740>746-250600-
SOUTHERN LAKE MICHIGAN

STATION/POSITION SKY/WX   TEMP    WIND        PRES    VSBY  WAVE
                          AIR SEA DIR/SP/G                  HT/PER
                          (F)     (DEG/KT/KT) (MB)    (MI)  (FT/S)
SOUTHERN BUOY              49 38  170/ 14/ 16 1013.7F         1
HARRISON CRIB              71     180/ 21/ 24   N/A
BURNHAM HARBOR             74     150/  8/ 15   N/A
CALUMET HARBOR             76     160/ 12/ 23   N/A
BURNS HARBOR               76     180/ 10/ 20 1014.9S
MICHIGAN CITY              75     150/ 13/ 17   N/A
MICHIGAN CITY 6N           69 54  190/ 14/ 17   N/A           1/ 2
ST. JOSEPH                 67 54  200/ 12/ 14   N/A           1/ 2
$$

ILZ025>027-034>036-040-047-049-050-058-095>099-250600-
WEST-CENTRAL ILLINOIS

CITY           SKY/WX    TMP DP  RH WIND       PRES   REMARKS
QUINCY         CLOUDY    68  65  90 SE13      29.80F
GALESBURG*     LGT RAIN  66  65  95 SE6       29.85F
MACOMB*        CLOUDY    67  66  97 SE6       29.86F
JACKSONVILLE*  CLOUDY    72  68  88 SE13      29.87F
PITTSFIELD*    CLOUDY    69  66  89 SE15G21   29.84F
$$

ILZ028>032-037-038-041>044-048-051>054-059>061-250600-
CENTRAL ILLINOIS

CITY           SKY/WX    TMP DP  RH WIND       PRES   REMARKS
PONTIAC        CLOUDY    77  65  65 S20G25    29.92F
BLOOMINGTON    CLOUDY    76  66  71 S23G35    29.92F
DECATUR        HVY RAIN  70  64  81 SW29G46   29.97R
PEORIA         LGT RAIN  70  66  87 SW5       29.88F FOG
LACON*         CLOUDY    70  65  84 W6        29.87S
LINCOLN*       RAIN      73  67  80 S10G20    29.88S
SPRINGFIELD    LGT RAIN  72  68  87 S18       29.90S
TAYLORVILLE    RAIN      64  63  94 S12       29.93S
$$

ILZ033-039-045-046-055>057-062-063-250600-
EAST-CENTRAL ILLINOIS

CITY           SKY/WX    TMP DP  RH WIND       PRES   REMARKS
CHAMPAIGN      MOCLDY    76  63  64 S16G25    29.95F
DANVILLE*      PTCLDY    74  62  65 S17       29.95F
RANTOUL*       MOCLDY    76  64  65 S14       29.95F
MATTOON        LGT RAIN  69  66  90 S13       29.98R FOG
PARIS*         CLOUDY    75  63  66 S17G23    29.99F
$$

ILZ079-100>102-250600-
SOUTHWEST ILLINOIS

CITY           SKY/WX    TMP DP  RH WIND       PRES   REMARKS
ALTON          CLOUDY    67  67 100 SE10G16   29.91S
BELLEVILLE     CLOUDY    67  67 100 SE10      29.90F
CAHOKIA*       LGT RAIN  69  65  86 S12       29.90S
SPARTA*        LGT RAIN  68  66  93 SE12G21   29.95F
$$

ILZ064>066-069>071-074>076-080>082-084>086-088>090-092>094-250600-
SOUTH-CENTRAL ILLINOIS

CITY           SKY/WX    TMP DP  RH WIND       PRES   REMARKS
CARBONDALE     CLOUDY    69  66  90 S10       29.98F
CAIRO*         DRIZZLE   70  67  92 SE10      30.00F
EFFINGHAM*     LGT RAIN  68  63  83 S7        30.00F
MARION         CLOUDY    70  68  94 S14       29.99F
MT. VERNON     CLOUDY    70  63  78 S12       29.99S
CENTRALIA*     RAIN      66  64  92 S12       29.97F
SALEM*         LGT RAIN  70  65  85 S8        29.98S
METROPOLIS*    CLOUDY    73  66  80 S10G18    30.01F
$$

ILZ067-068-072-073-078-083-087-091-250600-
SOUTHEAST ILLINOIS

CITY           SKY/WX    TMP DP  RH WIND       PRES   REMARKS
LAWRENCEVILLE  CLOUDY    76  64  66 S15G23    30.00F
FLORA*         CLOUDY    68  63  84 S7        29.99F
FAIRFIELD*     CLOUDY    75  67  75 S15       29.99S
HARRISBURG*    CLOUDY    76  65  69 S21G28    30.02S
ROBINSON*      CLOUDY    76  63  64 S16G22    30.01S
CARMI*         CLOUDY    75  61  60 S18       30.01S
$$

ABBREVIATIONS USED IN REMARKS
   TC - TEMPERATURE IN CELSIUS
  WCI - WIND CHILL INDEX
   HX - HEAT INDEX
  VSB - VISIBILITY
$$




USA.gov is the U.S. government's official web portal to all federal, state and local government web resources and services.